FW8351 Weather Reports


Display with metric or nautical units.
time (UTC)temp
F
wind
direction
speed
MPH
gust
MPH
rain 1hr
in
rain 24hr
in
rain mn
in
humidity
%
barometer
mb
20260507150012 59 117 2.0 13.0 0.00 0.00 0.00 59 1010.3
20260507144550 57 218 1.0 7.0 0.00 0.00 0.00 60 1010.3
20260507143025 56 261 0.0 7.0 0.00 0.00 0.00 59 1010.2
20260507141513 58 236 0.0 3.0 0.00 0.00 0.00 59 1010.1
20260507140055 59 168 0.0 2.0 0.00 0.00 0.00 56 1010.2
20260507134531 60 272 1.0 5.0 0.00 0.00 0.00 52 1010.3
20260507133007 63 141 1.0 8.0 0.00 0.00 0.00 45 1010.2
20260507131609 62 255 1.0 4.0 0.00 0.00 0.00 44 1010.1
20260507130047 61 141 0.0 2.0 0.00 0.00 0.00 43 1010.3
20260507124528 61 259 1.0 3.0 0.00 0.00 0.00 47 1010.5
20260507123010 60 175 0.0 2.0 0.00 0.00 0.00 48 1010.6
20260507121543 59 205 0.0 3.0 0.00 0.00 0.00 49 1010.8
20260507120011 60 161 0.0 0.0 0.00 0.00 0.00 51 1011.0
20260507114548 59 316 0.0 3.0 0.00 0.00 0.00 53 1011.3
20260507113048 58 144 0.0 0.0 0.00 0.00 0.00 49 1011.5
20260507111547 58 154 0.0 3.0 0.00 0.00 0.00 56 1011.7
20260507110022 57 78 0.0 2.0 0.00 0.00 0.00 52 1011.9
20260507104523 57 228 0.0 1.0 0.00 0.00 0.00 59 1011.9
20260507103029 56 157 0.0 2.0 0.00 0.00 0.00 63 1012.0
20260507101606 55 203 0.0 0.0 0.00 0.00 0.00 61 1012.1
20260507100026 55 86 0.0 1.0 0.00 0.00 0.00 61 1012.2
20260507094651 55 146 0.0 1.0 0.00 0.00 0.00 60 1012.3
20260507093025 54 166 0.0 1.0 0.00 0.00 0.00 71 1012.4
20260507091609 53 214 0.0 0.0 0.00 0.00 0.00 68 1012.3
20260507090106 52 180 0.0 1.0 0.00 0.00 0.00 69 1012.4
20260507084543 51 141 0.0 1.0 0.00 0.00 0.00 72 1012.3
20260507083016 50 291 0.0 0.0 0.00 0.00 0.00 76 1012.5
20260507081557 48 168 0.0 0.0 0.00 0.00 0.00 86 1012.4
20260507080038 46 222 0.0 0.0 0.00 0.00 0.00 91 1012.6
20260507074508 43 224 0.0 0.0 0.00 0.00 0.00 93 1012.7
20260507073135 43 152 0.0 0.0 0.00 0.00 0.00 94 1012.6
20260507071608 42 152 0.0 0.0 0.00 0.00 0.00 95 1012.6
20260507070046 42 152 0.0 0.0 0.00 0.00 0.00 95 1012.6
20260507064544 42 152 0.0 1.0 0.00 0.00 0.00 95 1012.6
20260507063046 41 152 0.0 0.0 0.00 0.00 0.00 95 1012.5
20260507061520 41 152 0.0 0.0 0.00 0.00 0.00 94 1012.5
20260507060101 41 152 0.0 0.0 0.00 0.00 0.00 95 1012.5
20260507054602 40 152 0.0 0.0 0.00 0.00 0.00 95 1012.4
20260507053102 40 152 0.0 0.0 0.00 0.00 0.00 94 1012.5
20260507051517 40 152 0.0 0.0 0.00 0.00 0.00 94 1012.4
20260507050022 40 152 0.0 0.0 0.00 0.00 0.00 94 1012.2
20260507044556 40 152 0.0 0.0 0.00 0.00 0.00 94 1012.2
20260507043038 40 152 0.0 0.0 0.00 0.00 0.00 94 1012.2
20260507041535 40 152 0.0 0.0 0.00 0.00 0.00 94 1012.2
20260507040034 40 153 0.0 0.0 0.00 0.00 0.00 94 1012.1
20260507034523 40 153 0.0 0.0 0.00 0.00 0.00 94 1012.2
20260507033015 40 153 0.0 0.0 0.00 0.00 0.00 94 1012.0
20260507031510 40 153 0.0 0.0 0.00 0.00 0.00 94 1012.1
20260507030010 40 153 0.0 0.0 0.00 0.00 0.00 94 1012.1
20260507024509 39 153 0.0 0.0 0.00 0.00 0.00 94 1012.1
20260507023023 39 153 0.0 0.0 0.00 0.00 0.00 94 1012.2
20260507021548 39 153 0.0 0.0 0.00 0.00 0.00 93 1012.1
20260507020020 40 153 0.0 0.0 0.00 0.00 0.00 93 1012.0
20260507014515 40 153 0.0 0.0 0.00 0.00 0.00 94 1012.1
20260507013056 39 153 0.0 0.0 0.00 0.00 0.00 93 1012.2
20260507011509 39 153 0.0 0.0 0.00 0.00 0.00 92 1012.2
20260507010106 40 155 0.0 0.0 0.00 0.00 0.00 92 1012.2
20260507004605 40 155 0.0 0.0 0.00 0.00 0.00 92 1012.5
20260507003028 41 155 0.0 0.0 0.00 0.00 0.00 92 1012.5
20260507001528 41 155 0.0 0.0 0.00 0.00 0.00 93 1012.7
20260507000031 41 155 0.0 0.0 0.00 0.00 0.00 93 1012.7
20260506234609 41 155 0.0 0.0 0.00 0.00 0.00 93 1012.7
20260506233035 41 155 0.0 0.0 0.00 0.00 0.00 92 1012.8
20260506231546 41 155 0.0 0.0 0.00 0.00 0.00 93 1012.8
20260506230039 41 155 0.0 0.0 0.00 0.00 0.00 93 1012.8
20260506224516 41 155 0.0 0.0 0.00 0.00 0.00 92 1012.8
20260506223017 41 164 0.0 0.0 0.00 0.00 0.00 92 1012.8
20260506221521 41 17 0.0 0.0 0.00 0.00 0.00 91 1012.6
20260506220047 42 17 0.0 0.0 0.00 0.00 0.00 91 1012.6
20260506214519 42 17 0.0 0.0 0.00 0.00 0.00 92 1012.7
20260506213013 42 17 0.0 0.0 0.00 0.00 0.00 92 1012.8
20260506211546 42 17 0.0 0.0 0.00 0.00 0.00 92 1012.8
20260506210016 42 278 0.0 0.0 0.00 0.00 0.00 91 1012.8
20260506204601 42 278 0.0 0.0 0.00 0.00 0.00 91 1012.7
20260506203100 42 278 0.0 0.0 0.00 0.00 0.00 91 1012.6
20260506201555 42 278 0.0 0.0 0.00 0.00 0.00 91 1012.4
20260506200043 42 309 0.0 0.0 0.00 0.00 0.00 90 1012.0
20260506194607 42 301 0.0 0.0 0.00 0.00 0.00 89 1011.5
20260506193034 43 97 0.0 0.0 0.00 0.00 0.00 88 1011.2
20260506191509 43 77 0.0 0.0 0.00 0.00 0.00 87 1011.0
20260506190023 44 89 0.0 4.0 0.00 0.00 0.00 85 1010.8
20260506184517 45 305 5.0 14.0 0.00 0.00 0.00 83 1011.0
20260506183040 46 196 0.0 0.0 0.00 0.00 0.00 85 1010.6
20260506181523 46 58 0.0 0.0 0.00 0.00 0.00 84 1010.2
20260506180020 46 54 0.0 1.0 0.00 0.00 0.00 83 1009.9
20260506174536 47 58 0.0 1.0 0.00 0.00 0.00 80 1009.8
20260506173021 48 74 0.0 0.0 0.00 0.00 0.00 80 1009.9
20260506171522 48 56 0.0 0.0 0.00 0.00 0.00 79 1009.9
20260506170024 49 288 0.0 0.0 0.00 0.00 0.00 76 1009.9
20260506164538 49 288 0.0 1.0 0.00 0.00 0.00 80 1009.7
20260506163105 49 303 0.0 1.0 0.00 0.00 0.00 78 1009.7
20260506161521 49 175 0.0 0.0 0.00 0.00 0.00 77 1009.6
20260506160046 49 46 0.0 4.0 0.00 0.00 0.00 73 1009.2
20260506154530 50 3 0.0 1.0 0.00 0.00 0.00 70 1009.1
20260506153021 51 341 0.0 0.0 0.00 0.00 0.00 68 1008.8
20260506151603 52 91 0.0 2.0 0.00 0.00 0.00 73 1008.7